|
|
Asteroid 2008 CQ
(Preview)
The 22 - 49 metre wide asteroid 2008 CQ will make a close pass (4.8 lunar distances, 0.0124 AU) travelling at 11.07 km/second, to the Earth-Moon system on the 31st January 2015 @ 01:20 UT ±2 days 05:21. See more The Lunar Distance (LD), the distance between Earth and the Moon, equals 384,401 km, (or 0.0...
|
Blobrana
|
0
|
|
|
|
|
Asteroid 2015 BD511
(Preview)
The 10 - 23 metre wide asteroid 2015 BD511 will make a close pass (4.5 lunar distances, 0.0115 AU) travelling at 19.24 km/second, to the Earth-Moon system on the 30th January 2015 @ 00:48 UT ±00:01. See more The Lunar Distance (LD), the distance between Earth and the Moon, equals 384,401 km, (or 0.002...
|
Blobrana
|
0
|
|
|
|
|
Asteroid 2015 BE
(Preview)
The 28 - 62 metre wide asteroid 2015 BE will make a close pass (30.9 lunar distances, 0.0795 AU) travelling at 12.11 km/second, to the Earth-Moon system on the 30th January 2015 @ 08:25 UT ±00:01. See more The Lunar Distance (LD), the distance between Earth and the Moon, equals 384,401 km, (or 0.00256...
|
Blobrana
|
0
|
|
|
|
|
Asteroid 2015 BE511
(Preview)
Orbital elements:
2015 BE511 Earth MOID = 0.0007 AU
Epoch 2014 Dec. 9.0 TT = JDT 2457000.5 MPC
M 353.65535 (2000.0) P Q
n 0.25096830 Peri. 177.36671 -0.12536929 -0.99210813
a 2.4891829 Node 279.83537 +0.91020613 -0.11421629
e 0.6161031 Incl. 0.11642 +0.39472440 -0.05173110
P 3.93 H 28.8...
|
Blobrana
|
0
|
|
|
|
|
Asteroid 2014 SQ143
(Preview)
The 140 - 310 metre wide asteroid 2014 SQ143 will make a close pass (43.5 lunar distances, 0.1119 AU) travelling at 9.16 km/second, to the Earth-Moon system on the 29th January 2015 @ 20:26 UT ±00:02. See more The Lunar Distance (LD), the distance between Earth and the Moon, equals 384,401 km, (or 0.0...
|
Blobrana
|
0
|
|
|
|
|
Asteroid 2014 YS14
(Preview)
The 180 - 410 metre wide asteroid 2014 YS14 will make a close pass (57.4 lunar distances, 0.1475 AU) travelling at 16.17 km/second, to the Earth-Moon system on the 29th January 2015 @ 09:28 UT ±00:01. See more The Lunar Distance (LD), the distance between Earth and the Moon, equals 384,401 km, (or 0.0...
|
Blobrana
|
0
|
|
|
|
|
Asteroid 2015 BG92
(Preview)
The 29 - 64 metre wide asteroid 2015 BG92 will make a close pass (11.3 lunar distances, 0.0290 AU) travelling at 4.23 km/second, to the Earth-Moon system on the 29th January 2015 @ 06:09 UT ±00:02. See more The Lunar Distance (LD), the distance between Earth and the Moon, equals 384,401 km, (or 0.0025...
|
Blobrana
|
0
|
|
|
|
|
Asteroid 2015 BE92
(Preview)
The 6 - 14 metre wide asteroid 2015 BE92 will make a close pass (3.2 lunar distances, 0.0083 AU) travelling at 6.05 km/second, to the Earth-Moon system on the 29th January 2015 @ 01:25 UT ±00:01. See more The Lunar Distance (LD), the distance between Earth and the Moon, equals 384,401 km, (or 0.00256 A...
|
Blobrana
|
0
|
|
|
|
|
Asteroid (357439) 2004 BL86
(Preview)
The 420 - 940 metre wide asteroid (357439) 2004 BL86 will make a close pass (3.1 lunar distances, 0.0080 AU) travelling at 15.67 km/second, to the Earth-Moon system on the 26th January 2015 @ 16:20 UT ±00:01. See more The Lunar Distance (LD), the distance between Earth and the Moon, equals 384,401 km...
|
Blobrana
|
7
|
|
|
|
|
Asteroid 2009 CD
(Preview)
The 77 - 170 metre wide asteroid 2009 CD made a close pass (49.0 lunar distances, 0.1258 AU) travelling at 12.35 km/second, to the Earth-Moon system on the 27th January 2015 @ 10:20 UT ±00:01. See more The Lunar Distance (LD), the distance between Earth and the Moon, equals 384,401 km, (or 0.00256 AU)...
|
Blobrana
|
0
|
|
|
|
|
Asteroid 2015 BW92
(Preview)
The 500 - 1100 metre wide asteroid 2015 BW92 will make a close pass (75.6 lunar distances, 0.1942 AU) travelling at 14.29 km/second, to the Earth-Moon system on the 27th January 2015 @ 23:40 UT ±00:04. See more The Lunar Distance (LD), the distance between Earth and the Moon, equals 384,401 km, (or 0....
|
Blobrana
|
0
|
|
|
|
|
Asteroid 2015 BQ
(Preview)
The 48 - 110 metre wide asteroid 2015 BQ will make a close pass (28.0 lunar distances, 0.0718 AU) travelling at 11.44 km/second, to the Earth-Moon system on the 27th January 2015 @ 21:46 UT ±00:01. See more The Lunar Distance (LD), the distance between Earth and the Moon, equals 384,401 km, (or 0.0025...
|
Blobrana
|
0
|
|
|
|
|
Asteroid 2015 BM
(Preview)
The 18 - 40 metre wide asteroid 2015 BM will make a close pass (34.1 lunar distances, 0.0876 AU) travelling at 6.11 km/second, to the Earth-Moon system on the 27th January 2015 @ 13:13 UT ±00:03. See more The Lunar Distance (LD), the distance between Earth and the Moon, equals 384,401 km, (or 0.00256 A...
|
Blobrana
|
0
|
|
|
|
|
Asteroid 2014 YC9
(Preview)
The 44 - 99 metre wide asteroid 2014 YC9 will make a close pass (42.2 lunar distances, 0.1083 AU) travelling at 5.26 km/second, to the Earth-Moon system on the 26th January 2015 @ 06:10 UT ±00:02. See more The Lunar Distance (LD), the distance between Earth and the Moon, equals 384,401 km, (or 0.00256...
|
Blobrana
|
0
|
|
|
|
|
Asteroid 2015 AK45
(Preview)
The 14 - 31 metre wide asteroid 2015 AK45 will make a close pass (4.7 lunar distances, 0.0122 AU) travelling at 8.60 km/second, to the Earth-Moon system on the 26th January 2015 @ 21:12 UT ±00:01. See more The Lunar Distance (LD), the distance between Earth and the Moon, equals 384,401 km, (or 0.00256...
|
Blobrana
|
0
|
|
|